Location: Memmingen
(47.9830°N, 10.1733°E)
Time: 08:43:54
(UTC+02:00)

ISS - Visible Passes

Search period start: 24 September 2017 00:00
Search period end: 04 October 2017 00:00
Orbit: 401 x 407 km, 51.6° (Epoch: 24 September)

Date Brightness Start Highest point End Pass type
(mag) Time Alt. Az. Time Alt. Az. Time Alt. Az.
25 Sep -1.4 21:18:48 10° SW 21:19:31 15° SW 21:19:31 15° SW visible
26 Sep -2.7 20:26:56 10° SSW 20:29:43 26° SE 20:29:53 26° SE visible
27 Sep -1.9 19:35:30 10° S 19:37:35 16° SE 19:39:39 10° E visible
27 Sep -3.0 21:10:21 10° WSW 21:12:44 45° SW 21:12:44 45° SW visible
28 Sep -3.6 20:18:08 10° SW 20:21:19 50° SSE 20:22:45 27° E visible
28 Sep -0.9 21:54:38 10° W 21:55:24 16° W 21:55:24 16° W visible
29 Sep -3.5 21:02:08 10° W 21:05:17 63° NNW 21:05:17 63° NNW visible
30 Sep -3.9 20:09:41 10° WSW 20:12:59 89° N 20:15:03 21° ENE visible
30 Sep -1.1 21:46:31 10° WNW 21:47:42 19° WNW 21:47:42 19° WNW visible
01 Oct -3.1 20:53:59 10° W 20:57:10 47° N 20:57:23 46° N visible
02 Oct -3.4 20:01:26 10° W 20:04:40 58° NNW 20:07:01 17° ENE visible
02 Oct -1.2 21:38:19 10° WNW 21:39:39 21° WNW 21:39:39 21° WNW visible
03 Oct -3.0 20:45:48 10° WNW 20:48:56 41° N 20:49:14 40° NNE visible
